Location: Glencliff
(36.1226°N, 86.7183°W)
Time: 17:20:39
(UTC+00:00)

Cosmos 1503 Rocket - Pass Details

Date: 25 August 2019
Orbit: 752 x 791 km, 74.0° (Epoch: 17 September)

Event Time Altitude Azimuth Distance (km) Brightness Sun altitude
Rises 09:52:42 0° 341° (NNW) 3,273 7.4 -16.0°
Reaches altitude 10° 09:55:07 10° 340° (NNW) 2,335 6.6 -15.6°
Maximum altitude 10:00:25 80° 254° (WSW) 789 3.9 -14.6°
Drops below altitude 10° 10:05:37 10° 168° (SSE) 2,294 6.3 -13.6°
Sets 10:07:58 0° 167° (SSE) 3,211 7.1 -13.2°
